GSLV R/B, 62851

Orbit data source: Space-Track

GSLV R/B, 62851 is space debris in HEO originally from a launch on Wed, 29 Jan 2025 UTC launched from the Sirharikota (SRI). Debris objects in space refer to the collection of defunct objects orbiting the Earth. Examples of debris include non-operational satellites, rocket bodies, and fragments generated from explosions, collisions, or faulty payload assembly.

Loading next visibility...
Identifier
62851, 2025-020B
Orbit
HEO
Country
Flag of ININ / IND
Related business
Manufacturer
ISRO
Mission
Spacecraft
Bus & Motor
CUS15, Unknown motor
Mass
2,630 kg wet, 2,630 kg dry
Launch date (UTC)
2025-01-29 (8 months ago)
Launch vehicle
Unknown
Launch site
Sirharikota (SRI)
Object type
Payload
Rocket body
Debris
Shape & HBR
Cyl, 4.3 m
Radar Cross Section
22.211 m², Large (>1 m²)

Expand to show TLE details & history
Last TLE update: 2 days ago

TLE from 2 days ago
0 GSLV R/B
1 62851U 25020B   25259.30790603  .00064965  12030-5  26333-2 0  9992
2 62851  21.0953 354.4961 7235195 337.8827   2.5749  2.37759539  5198
Epoch: 2025-09-16T07:23Z
TLE epoch observation values (Epoch: 2025-09-16T07:23:23.081Z)
Latitude
-0.00007°
Longitude
-111.84428°
Altitude
366.874 km
Speed
10.068 km/s
True Right ascension
23h 38m 00s
True Declination
0° 00' 00"
Sunlit
Object was in full shadow at epoch
Visualization orbit readout
Latitude
Unknown
Longitude
Unknown
Altitude
Unknown
Speed
Unknown
Apparent Right ascension
Unknown
Apparent Declination
Unknown
Sunlit
N/A
Visualization observer readout
Local Sidereal Time
22:24:59
Azimuth
Unknown
Elevation
Unknown
Doppler factor
Unknown
Orbital elements
Apogee altitude
34,498.61 km
Perigee altitude
179.157 km
Semi-major axis
23,717.021 km
Eccentricity
0.72352
Inclination
21.0953°
RAAN
354.4961°
Arg. of periapsis
337.8827°
True anomaly
22.74019°
Mean anomaly
2.5749°
Eccentric anomaly
9.20949°
Mean motion
0.59423 °/min
Orbital period
605.83 mins
BSTAR
0.0026333
Loading maneuver chart data...
Computing Atmospheric mass density...
Loading historical data...
Loading historical data...
Loading historical data...
Loading historical data...
Loading historical data...
Loading historical data...
Loading historical data...
Other satellites on launch #20 in the year 2025 (2025-01-29 UTC)

Documentation

Showing up to 5 results
|